Regional Weather Roundup
Issued by NWS

Home | Current Version | Previous Version | Graphics & Text | Print | Product List | Glossary Off
Versions: 1 2 3 4 5 6 7 8 9 10 11 12 13 14 15 16 17 18 19 20 21 22 23 24 25 26 27 28 29 30 31 32 33 34 35 36 37 38 39 40 41 42 43 44 45 46 47 48 49 50

000
ASUS43 KMKX 272011
RWRWI

WISCONSIN REGIONAL WEATHER ROUNDUP
NATIONAL WEATHER SERVICE MILWAUKEE/SULLIVAN WI
300 PM CDT MON APR 27 2015

NOTE: "FAIR" INDICATES FEW OR NO CLOUDS BELOW 12,000 FEET WITH NO
SIGNIFICANT WEATHER AND/OR OBSTRUCTIONS TO VISIBILITY.

WIZ001-002-006>008-014>016-023>028-272100-
NORTHWEST WISCONSIN

CITY           SKY/WX    TMP DP  RH WIND       PRES   REMARKS
SUPERIOR ARPT  SUNNY     65  30  26 S3        30.17F
ASHLAND        SUNNY     61  30  31 E8        30.20S
HAYWARD        SUNNY     65  25  22 NW9       30.16F
SIREN          SUNNY     66  23  19 NE9G16    30.17F
CUMBERLAND     SUNNY     64  28  25 N15       30.16F
RICE LAKE      SUNNY     65  27  23 N9G17     30.17F
CHETEK         SUNNY     65  33  30 NW8       30.16F
LADYSMITH      SUNNY     65  29  25 NW10G17   30.16F
EAU CLAIRE     SUNNY     68  29  23 N12       30.14F
MENOMONIE      SUNNY     67  25  20 NW16G25   30.16F
NEW RICHMOND   SUNNY     66  22  18 N7        30.18F
OSCEOLA        SUNNY     66  27  22 NE6       30.20F
$$

WIZ003>005-009-010-017-018-272100-
NORTH CENTRAL WISCONSIN

CITY           SKY/WX    TMP DP  RH WIND       PRES   REMARKS
MANITOWISH WTR SUNNY     58  29  33 N9G16     30.16S
ARBOR VITAE    SUNNY     61  29  30 N8G22     30.14S
WOODRUFF       SUNNY     61  29  30 N8G22     30.14S
RHINELANDER    SUNNY     62  26  25 N14G23    30.13F
EAGLE RIVER    SUNNY     60  24  25 N12G17    30.14S
LAND O LAKES   SUNNY     58  25  28 NE9G18    30.15S
PHILLIPS       SUNNY     62  32  32 N12G17    30.14S
TOMAHAWK       SUNNY     63  29  27 CALM      30.13S
MEDFORD        SUNNY     64  32  30 NW8G16    30.12F
MERRILL        SUNNY     64  31  29 NE10      30.11S
$$

WIZ029-030-035-036-043>047-272100-
CENTRAL WISCONSIN

CITY           SKY/WX    TMP DP  RH WIND       PRES   REMARKS
WAUSAU         SUNNY     65  29  25 N8        30.09F
MOSINEE        SUNNY     63  28  27 N5        30.12F
MARSHFIELD     SUNNY     66  31  27 NW13G18   30.12F
STEVENS POINT  SUNNY     64  29  27 NW13      30.10F
WAUPACA        SUNNY     68  28  22 NW7G16    30.09F
WAUTOMA        SUNNY     66  28  24 N7G21     30.10F
WISC RAPIDS    SUNNY     67  28  23 N10G20    30.12F
CAMP DOUGLAS   SUNNY     68  32  26 N10G17    30.11F
$$

WIZ011>013-019>022-031-037>040-048>050-272100-
NORTHEAST WISCONSIN

CITY           SKY/WX    TMP DP  RH WIND       PRES   REMARKS
ANTIGO         SUNNY     62  31  31 N14G20    30.10F
SHAWANO        SUNNY     67  29  23 N5G10     30.09F
OCONTO         SUNNY     53  35  49 E8        30.12S
STURGEON BAY   MOSUNNY   55  34  44 N10       30.13F
GREEN BAY      SUNNY     60  36  40 NE9       30.11F
MANITOWOC      MOSUNNY   52  36  54 E9        30.13S
APPLETON       MOSUNNY   63  28  27 N12G17    30.11F
CLINTONVILLE   SUNNY     64  27  24 NE8G16    30.08F
OSHKOSH        SUNNY     59  33  37 VRB7      30.11F
$$

WIZ032>034-041-042-053>061-272100-
SOUTHWEST WISCONSIN

CITY           SKY/WX    TMP DP  RH WIND       PRES   REMARKS
LA CROSSE      SUNNY     67  33  28 NW10      30.14F
SPARTA         SUNNY     66  28  24 N13       30.14F
VIROQUA        SUNNY     62  32  32 N13       30.14F
BOSCOBEL       SUNNY     67  32  27 NW8G18    30.13F
PRAIRIE DU CHI SUNNY     65  31  27 NW7       30.14S
PLATTEVILLE    SUNNY     64  33  31 N12       30.12F
$$

WIZ056-057-062-063-064-067-068-272100-
SOUTH CENTRAL WISCONSIN

CITY           SKY/WX    TMP DP  RH WIND       PRES   REMARKS
REEDSBURG      SUNNY     64  34  33 N10       30.11S
BARABOO/DELLS  SUNNY     64  29  26 NW9G16    30.11S
LONE ROCK      SUNNY     65  31  28 NW10G20   30.12F
MINERAL POINT  SUNNY     64  27  24 N9        30.12F
MADISON        MOSUNNY   65  33  30 N14G20    30.10F
MIDDLETON      SUNNY     65  28  24 NW14      30.10F
WATERTOWN      SUNNY     61  36  39 N8        30.10F
MONROE         SUNNY     63  34  34 N8        30.10F
JANESVILLE     MOSUNNY   64  30  27 NE14G21   30.10F
$$

WIZ051-052-058>065-066-070>072-272100-
SOUTHEAST WISCONSIN

CITY           SKY/WX    TMP DP  RH WIND       PRES   REMARKS
MILWAUKEE      MOSUNNY   48  34  58 NE16      30.15S
WAUKESHA       MOSUNNY   54  36  50 NE10      30.13S
MILWAUKEE/TIMM SUNNY     52  30  43 NE9       30.14S
RACINE         SUNNY     50  34  54 N16       30.15S
BURLINGTON     SUNNY     56  35  45 E10G17    30.11S
KENOSHA        SUNNY     54  35  48 N14G23    30.12S
FOND DU LAC    SUNNY     60  32  34 N12       30.12F
SHEBOYGAN      SUNNY     50  35  56 NE13      30.13F
WEST BEND      MOSUNNY   54  34  47 E9        30.11S
JUNEAU         SUNNY     60  33  36 N7G16     30.12S
$$

LSZ147-162-272100-
LAKE SUPERIOR

STATION/POSITION TIME  TEMP    WIND        PRES    WAVE
                       AIR SEA DIR/SP/G            HT/PER
                 (UTC) (F)     (DEG/KT/KT) (MB)    (FT/S)
W MID LAKE BUOY  1950   37 35  210/  6/  6 1024.6F   0
DEVILS ISLAND    2000   46     110/  2/  4 1023.0F
PORT WING        1900   44     360/  3/  4 1023.0F
SAXON HARBOR     1900   45        CALM     1023.4F
$$

LMZ867-665-643>646-272100-
LAKE MICHIGAN

STATION/POSITION TIME  TEMP    WIND        PRES    WAVE
                       AIR SEA DIR/SP/G            HT/PER
                 (UTC) (F)     (DEG/KT/KT) (MB)    (FT/S)
CHAMBERS ISLAND  1900   46      60/ 10/ 16 1020.3S
NORTHPORT PIER   1900   44     340/ 10/ 11 1020.3F
SISTER BAY       1917   56      30/  9/ 15   N/A
KEWAUNEE LAKESHO 1906   45      70/  4/  7 1019.7F
SHEBOYGAN LAKESH 2000   41      40/  7/  9 1021.3F
PORT WASHINGTON  1900   46      40/ 14/ 17 1021.0S
MILWAUKEE LAKESH 1900   42      30/  9/ 11   N/A
KENOSHA   LAKESH 2000   43      10/ 10/ 12 1020.3F
$$

TC  - TEMPERATURE IN CELSIUS
VSB - VISIBILITY IN STATUTE MILES
WCI - WIND CHILL INDEX
HX  - HEAT INDEX



USA.gov is the U.S. government's official web portal to all federal, state and local government web resources and services.